Victoria, British Columbia

11:02 PM PDT on September 30, 2016 (GMT -0700)
Victoria International

Weather History for CYYJ - June, 2013

Change the Weather History Date:

Thursday, June 27, 2013

  Actual Average Record
Temperature  
Mean Temperature 62 °F -  
Max Temperature 67 °F 66 °F 84 °F (2015)
Min Temperature 57 °F 50 °F 43 °F (2012)
Degree Days  
Heating Degree Days 3    
Growing Degree Days 12 (Base 50)    
Moisture  
Dew Point 54 °F    
Average Humidity 77    
Maximum Humidity 82    
Minimum Humidity 61    
Precipitation  
Precipitation 0.01 in - - ()
Sea Level Pressure  
Sea Level Pressure 30.13 in    
Wind  
Wind Speed 3 mph ()    
Max Wind Speed 7 mph    
Max Gust Speed -    
Visibility 16.0 miles    
Events Rain    
Averages and records for this station are not official NWS values.
T = Trace of Precipitation, MM = Missing Value Source: Averaged Metar Reports

Daily Weather History Graph

Daily Weather History Graph

Search for Another Location

Airport or City:

Trip Planner

Search our weather history database for the weather conditions in past years. The results will help you decide how hot, cold, wet, or windy it might be!

Date:

Astronomy

Jun. 27, 2013 Rise Set
Actual Time 5:13 AM PDT 9:20 PM PDT
Civil Twilight 4:31 AM PDT 10:02 PM PDT
Nautical Twilight 3:31 AM PDT 11:01 PM PDT
Astronomical Twilight 1:28 AM PDT 1:00 AM PDT
Moon 11:50 PM PDT (6/27) 10:47 AM PDT (6/27)
Length of Visible Light 17h 31m
Length of Day
16h 06m
Waning Gibbous, 75% of the Moon is Illuminated
Jun 27
Waning Gibbous
Jun 29
Last Quarter
Jul 8
New
Jul 15
First Quarter
Jul 22
Full

Hourly Weather History & Observations

Time (PDT) Temp. Dew Point Humidity Pressure Visibility Wind Dir Wind Speed Gust Speed Precip Events Conditions
12:00 AM 60.8 °F 51.8 °F 72% 30.08 in 30.0 mi NNE 2.3 mph - N/A   Mostly Cloudy
12:10 AM 59.0 °F - N/A% - 30.0 mi NNW 2.3 mph - N/A Rain Light Rain Showers
12:35 AM 60.8 °F - N/A% - 30.0 mi West 5.8 mph - N/A   Mostly Cloudy
1:00 AM 60.8 °F 51.8 °F 72% 30.08 in 30.0 mi NNW 2.3 mph - N/A   Overcast
2:00 AM 59.0 °F 51.8 °F 77% 30.07 in 30.0 mi East 3.5 mph - N/A   Overcast
3:00 AM 59.0 °F 51.8 °F 77% 30.06 in 30.0 mi Calm Calm - N/A   Overcast
4:00 AM 59.0 °F 51.8 °F 77% 30.06 in 30.0 mi East 3.5 mph - N/A Rain Light Rain Showers
5:00 AM 58 °F 51 °F 71% 30.06 in 15 mi Calm Calm - - Rain Light Rain
5:00 AM 57.2 °F 51.8 °F 82% 30.06 in 15.0 mi Calm Calm - N/A Rain Light Rain
6:00 AM 57.2 °F 51.8 °F 82% 30.07 in 10.0 mi Calm Calm - N/A Rain Light Rain
7:00 AM 57.2 °F 51.8 °F 82% 30.08 in 10.0 mi NE 4.6 mph - N/A Rain Light Rain
8:00 AM 59.0 °F 51.8 °F 77% 30.08 in 12.0 mi ENE 3.5 mph - N/A Rain Light Rain
9:00 AM 59.0 °F 53.6 °F 82% 30.11 in 15.0 mi ENE 6.9 mph - N/A   Overcast
10:00 AM 59.0 °F 53.6 °F 82% 30.12 in 20.0 mi ENE 4.6 mph - N/A   Overcast
11:00 AM 59.0 °F 53.6 °F 82% 30.13 in 30.0 mi NE 4.6 mph - N/A   Overcast
12:00 PM 62.6 °F 55.4 °F 77% 30.13 in 30.0 mi NE 5.8 mph - N/A Rain Light Rain
12:44 PM 60.8 °F - N/A% - 30.0 mi NE 5.8 mph - N/A   Overcast
1:00 PM 62.6 °F 55.4 °F 77% 30.14 in 30.0 mi NE 4.6 mph - N/A   Overcast
1:15 PM 62.6 °F - N/A% - 30.0 mi NNE 4.6 mph - N/A Rain Light Rain
2:00 PM 62.6 °F 55.4 °F 77% 30.16 in 30.0 mi WNW 5.8 mph - N/A   Overcast
3:00 PM 64.4 °F 55.4 °F 73% 30.16 in 30.0 mi West 4.6 mph - N/A   Overcast
4:00 PM 66.2 °F 55.4 °F 68% 30.17 in 30.0 mi NNE 6.9 mph - N/A   Overcast
5:00 PM 67 °F 57 °F 61% 30.18 in 28 mi North 6.9 mph - -   Partly Cloudy
5:00 PM 66.2 °F 57.2 °F 73% 30.18 in 30.0 mi North 6.9 mph - N/A   Overcast
6:00 PM 66.2 °F 57.2 °F 73% 30.19 in 30.0 mi North 4.6 mph - N/A   Overcast
6:21 PM 66.2 °F - N/A% - 30.0 mi WNW 4.6 mph - N/A Rain Light Rain
7:00 PM 66.2 °F 57.2 °F 73% 30.19 in 30.0 mi North 4.6 mph - N/A Rain Light Rain
7:17 PM 64.4 °F - N/A% - 30.0 mi NNE 3.5 mph - N/A   Mostly Cloudy
8:00 PM 64.4 °F 57.2 °F 77% 30.19 in 30.0 mi Calm Calm - N/A   Mostly Cloudy
9:00 PM 62.6 °F 57.2 °F 82% 30.20 in 20.0 mi West 3.5 mph - N/A   Scattered Clouds
10:00 PM 60.8 °F 55.4 °F 82% 30.21 in 20.0 mi Calm Calm - N/A   Mostly Cloudy
11:00 PM 60 °F 55 °F 79% 30.22 in 19 mi Calm Calm - -   Partly Cloudy
11:00 PM 60.8 °F 55.4 °F 82% 30.22 in 20.0 mi Calm Calm - N/A   Mostly Cloudy